Terminal Aerodrome Forecast
Issued by NWS Pittsburgh, PA

Current Version | Previous Version | Graphics & Text | Print | Product List | Glossary On
Versions: 1 2 3 4 5 6 7 8 9 10 11 12 13 14 15 16 17 18 19 20 21 22 23 24 25
000
FTUS41 KPBZ 192100 AAB
TAFPIT
TAF AMD
KPIT 192158Z 1922/2024 30005KT P6SM OVC025
     FM200000 31003KT P6SM OVC025=

USA.gov is the U.S. government's official web portal to all federal, state and local government web resources and services.